User: anonymous   Login
Location: Lawrence
(38.9720°N, 95.2350°W)
Time: 23:33:08
(UTC-05:00)
Language:

JAS-1B - Orbit

View from above orbital plane
View from above orbital plane
View from above satellite
View from above satellite

Ground track
Ground track

The orbit data is extracted from the following two-line orbital elements,

1 20480U 90013C   15090.18000480 -.00000026  00000-0  76456-5 0  9995
2 20480 099.0743 004.7912 0540994 064.0862 095.0045 12.83403694177949
Epoch (UTC): 31 March 2015 04:19:12
Eccentricity: 0.0540994
inclination: 99.0743°
perigee height: 911 km
apogee height: 1744 km
right ascension of ascending node: 4.7912°
argument of perigee: 64.0862°
revolutions per day: 12.83403694
mean anomaly at epoch: 95.0045°
orbit number at epoch: 17794

The dashed part of the orbit path shows where the satellite is in the earth's shadow,  

DLR